Home   Weather   Concord   Past weeks

Flag for USA Past Weather in Concord, California, USA — Yesterday and Last 2 Weeks

Now
67 °F

Sunny.


Feels Like: 67 °F
Forecast: 70 / 104 °F
Wind: 5 mph from Northwest

Location: Buchanan Field

Current Time: Jun 22, 2017 at 7:19:06 am

Latest Report: Jun 22, 2017 at 5:53 am


Visibility: 9 mi

Pressure: 29.63 "Hg

Humidity: 73%

Dew Point: 58 °F

Location of ConcordLocation

Past Weather in Concord — Graph

°F

Concord Temperature Yesterday

Maximum temperature yesterday: 98 °F (at 4:53 pm)
Minimum temperature yesterday: 63 °F (at 4:53 am)
Average temperature yesterday: 79 °F

High & Low Weather Summary for the Past Weeks

 TemperatureHumidityPressure
High107 °F (Jun 18, 3:53 pm)90% (Jun 9, 12:26 am)30.09 "Hg (Jun 9, 12:26 am)
Low54 °F (Jun 11, 4:53 am)21% (Jun 18, 3:53 pm)29.60 "Hg (Jun 21, 6:53 pm)
Average73 °F53%29.86 "Hg
* Reported Jun 7 6:53 am — Jun 22 5:53 am, Concord. Weather by CustomWeather, © 2017

Note: Actual official high and low records may vary slightly from our data, if they occured in-between our weather recording intervals... More about our weather records

Advertising

Concord Weather History for the Previous 24 Hours

Scroll right to see more
 ConditionsComfort  
Time TempWeatherWind HumidityBarometerVisibility
5:53 am
Thu, Jun 22
67 °FSunny.5 mph73%29.63 "Hg9 mi
4:53 am68 °FClear.No wind70%29.62 "Hg10 mi
3:53 am67 °FClear.3 mph73%29.62 "Hg10 mi
2:53 am67 °FClear.No wind71%29.61 "Hg10 mi
1:53 am68 °FClear.No wind68%29.63 "Hg9 mi
12:53 am69 °FClear.7 mph66%29.62 "Hg10 mi
11:53 pm
Wed, Jun 21
72 °FClear.8 mph61%29.63 "Hg10 mi
10:53 pm75 °FClear.5 mph62%29.62 "Hg10 mi
9:53 pm81 °FClear.5 mph53%29.62 "Hg10 mi
8:53 pm84 °FClear.3 mph48%29.60 "Hg10 mi
7:53 pm87 °FSunny.6 mph46%29.60 "Hg10 mi
6:53 pm94 °FSunny.9 mph36%29.60 "Hg10 mi
5:53 pm98 °FSunny.14 mph28%29.60 "Hg10 mi
4:53 pm98 °FSunny.14 mph31%29.61 "Hg10 mi
3:53 pm97 °FSunny.16 mph30%29.63 "Hg10 mi
2:53 pm95 °FSunny.13 mph31%29.65 "Hg10 mi
1:53 pm92 °FSunny.10 mph35%29.67 "Hg10 mi
12:53 pm88 °FSunny.8 mph38%29.69 "Hg10 mi
10:53 am78 °FSunny.12 mph50%29.73 "Hg10 mi
9:53 am77 °FSunny.6 mph52%29.73 "Hg10 mi
8:53 am72 °FSunny.5 mph59%29.75 "Hg10 mi
7:53 am69 °FSunny.8 mph63%29.75 "Hg10 mi
Weather by CustomWeather, © 2017

See weather overviewHow to use our weather pages